Mount Sterling, KY

12:41 AM EST on February 28, 2017 (GMT -0500)
Mount Sterling-Montgomery County

Weather History for KIOB - September, 2012

Change the Weather History Date:

Sunday, September 2, 2012

  Actual Average Record
Temperature  
Mean Temperature 78 °F -  
Max Temperature 86 °F 83 °F 89 °F (2015)
Min Temperature 71 °F 62 °F 59 °F (2016)
Cooling Degree Days 14    
Growing Degree Days 28 (Base 50)    
Moisture  
Dew Point 70 °F    
Average Humidity 80    
Maximum Humidity 100    
Minimum Humidity 58    
Precipitation  
Precipitation 0.00 in - - ()
Sea Level Pressure  
Sea Level Pressure 29.97 in    
Wind  
Wind Speed 6 mph ()    
Max Wind Speed 12 mph    
Max Gust Speed 24 mph    
Visibility 5.9 miles    
Events Rain    
Averages and records for this station are not official NWS values.
T = Trace of Precipitation, MM = Missing Value Source: Averaged Metar Reports

Daily Weather History Graph

Daily Weather History Graph

Search for Another Location

Airport or City:

Trip Planner

Search our weather history database for the weather conditions in past years. The results will help you decide how hot, cold, wet, or windy it might be!

Date:

Astronomy

Sep. 02, 2012 Rise Set
Actual Time 7:06 AM EDT 8:03 PM EDT
Civil Twilight 6:40 AM EDT 8:30 PM EDT
Nautical Twilight 6:08 AM EDT 9:01 PM EDT
Astronomical Twilight 5:35 AM EDT 9:34 PM EDT
Moon 8:53 PM EDT (9/2) 9:11 AM EDT (9/2)
Length of Visible Light 13h 49m
Length of Day
12h 56m
Waning Gibbous, 95% of the Moon is Illuminated
Sep 2
Waning Gibbous
Sep 8
Last Quarter
Sep 15
New
Sep 22
First Quarter
Sep 29
Full

Hourly Weather History & Observations

Time (EDT) Temp. Heat Index Dew Point Humidity Pressure Visibility Wind Dir Wind Speed Gust Speed Precip Events Conditions
12:15 AM 77.0 °F - 69.8 °F 78% 30.05 in 3.0 mi SSE 4.6 mph - N/A   Haze
12:35 AM 77.0 °F - 69.8 °F 78% 30.05 in 3.0 mi SSE 3.5 mph - N/A   Haze
12:55 AM 77.0 °F - 69.8 °F 78% 30.05 in 1.5 mi Calm Calm - N/A   Haze
1:15 AM 77.0 °F - 69.8 °F 78% 30.05 in 1.5 mi SSE 3.5 mph - N/A   Haze
1:35 AM 73.4 °F - 69.8 °F 88% 30.05 in 1.8 mi Calm Calm - N/A   Mostly Cloudy
1:55 AM 73.4 °F - 69.8 °F 88% 30.04 in 1.5 mi South 3.5 mph - N/A   Mist
2:15 AM 77.0 °F - 69.8 °F 78% 30.03 in 1.8 mi SSW 4.6 mph - N/A   Haze
2:35 AM 77.0 °F - 69.8 °F 78% 30.03 in 1.5 mi SSW 5.8 mph - N/A   Haze
2:55 AM 75.2 °F - 69.8 °F 83% 30.03 in 5.0 mi SSW 5.8 mph - N/A   Haze
3:15 AM 75.2 °F - 69.8 °F 83% 30.02 in 10.0 mi SW 4.6 mph - N/A   Scattered Clouds
3:35 AM 75.2 °F - 69.8 °F 83% 30.01 in 10.0 mi SW 4.6 mph - N/A   Scattered Clouds
3:55 AM 75.2 °F - 69.8 °F 83% 30.01 in 5.0 mi SSW 6.9 mph - N/A   Haze
4:15 AM 75.2 °F - 69.8 °F 83% 30.00 in 4.0 mi SSW 8.1 mph - N/A   Haze
4:35 AM 75.2 °F - 69.8 °F 83% 29.99 in 1.8 mi SSW 8.1 mph - N/A   Haze
4:55 AM 75.2 °F - 68.0 °F 78% 29.99 in 2.5 mi SSW 10.4 mph - N/A   Haze
5:15 AM 75.2 °F - 68.0 °F 78% 29.99 in 4.0 mi SSW 8.1 mph - N/A   Haze
5:35 AM 75.2 °F - 68.0 °F 78% 29.98 in 2.5 mi SSW 8.1 mph - N/A   Haze
5:55 AM 75.2 °F - 68.0 °F 78% 29.98 in 1.8 mi SSW 8.1 mph - N/A   Haze
6:15 AM 73.4 °F - 68.0 °F 83% 29.99 in 4.0 mi SSW 6.9 mph - N/A   Haze
6:35 AM 75.2 °F - 68.0 °F 78% 29.99 in 7.0 mi SSW 8.1 mph - N/A   Clear
6:55 AM 75.2 °F - 68.0 °F 78% 30.00 in 10.0 mi SSW 8.1 mph - N/A   Clear
7:15 AM 75.2 °F - 69.8 °F 83% 30.00 in 10.0 mi SSW 8.1 mph - N/A   Clear
7:35 AM 75.2 °F - 69.8 °F 83% 30.00 in 10.0 mi South 6.9 mph - N/A   Clear
7:55 AM 75.2 °F - 69.8 °F 83% 30.00 in 10.0 mi South 5.8 mph - N/A   Clear
8:15 AM 75.2 °F - 69.8 °F 83% 30.01 in 7.0 mi South 6.9 mph - N/A   Clear
8:35 AM 75.2 °F - 69.8 °F 83% 30.01 in 10.0 mi SSW 6.9 mph - N/A   Clear
8:55 AM 77.0 °F - 69.8 °F 78% 30.01 in 10.0 mi SSW 5.8 mph - N/A   Clear
9:15 AM 77.0 °F - 69.8 °F 78% 30.01 in 10.0 mi South 8.1 mph - N/A   Mostly Cloudy
9:35 AM 77.0 °F - 69.8 °F 78% 30.01 in 10.0 mi South 9.2 mph - N/A   Scattered Clouds
9:55 AM 78.8 °F - 69.8 °F 74% 30.00 in 10.0 mi SSW 9.2 mph - N/A   Clear
10:15 AM 78.8 °F - 69.8 °F 74% 30.01 in 10.0 mi SSW 8.1 mph - N/A   Scattered Clouds
10:35 AM 78.8 °F - 69.8 °F 74% 30.02 in 10.0 mi SSW 10.4 mph - N/A   Scattered Clouds
10:55 AM 78.8 °F - 69.8 °F 74% 30.02 in 10.0 mi SSW 5.8 mph - N/A   Clear
11:15 AM 78.8 °F - 69.8 °F 74% 30.02 in 10.0 mi SW 5.8 mph - N/A   Scattered Clouds
11:35 AM 78.8 °F - 69.8 °F 74% 30.02 in 10.0 mi South 8.1 mph - N/A   Mostly Cloudy
12:15 PM 80.6 °F 83.9 °F 69.8 °F 70% 30.00 in 7.0 mi South 8.1 mph - N/A   Mostly Cloudy
12:35 PM 80.6 °F 83.9 °F 69.8 °F 70% 30.00 in 7.0 mi South 9.2 mph - N/A   Mostly Cloudy
12:55 PM 80.6 °F 84.6 °F 71.6 °F 74% 29.99 in 5.0 mi South 8.1 mph - N/A   Haze
1:15 PM 80.6 °F 84.6 °F 71.6 °F 74% 29.99 in 7.0 mi South 6.9 mph - N/A   Mostly Cloudy
1:35 PM 82.4 °F 86.3 °F 69.8 °F 66% 29.98 in 5.0 mi South 8.1 mph - N/A   Haze
1:55 PM 82.4 °F 86.3 °F 69.8 °F 66% 29.97 in 10.0 mi SSW 10.4 mph - N/A   Mostly Cloudy
2:15 PM 82.4 °F 86.3 °F 69.8 °F 66% 29.96 in 10.0 mi South 10.4 mph - N/A   Scattered Clouds
2:35 PM 82.4 °F 86.3 °F 69.8 °F 66% 29.95 in 5.0 mi SSW 4.6 mph - N/A   Haze
2:55 PM 84.2 °F 88.4 °F 69.8 °F 62% 29.93 in 10.0 mi WSW 8.1 mph - N/A   Mostly Cloudy
3:15 PM 82.4 °F 86.3 °F 69.8 °F 66% 29.92 in 10.0 mi SW 5.8 mph - N/A   Overcast
3:35 PM 84.2 °F 88.4 °F 69.8 °F 62% 29.91 in 7.0 mi South 8.1 mph - N/A   Mostly Cloudy
3:55 PM 86.0 °F 90.4 °F 69.8 °F 58% 29.90 in 7.0 mi South 8.1 mph - N/A   Scattered Clouds
4:15 PM 84.2 °F 87.3 °F 68.0 °F 58% 29.89 in 3.0 mi South 8.1 mph - N/A   Haze
4:35 PM 84.2 °F 88.4 °F 69.8 °F 62% 29.89 in 4.0 mi South 8.1 mph - N/A   Haze
4:55 PM 73.4 °F - 69.8 °F 88% 29.91 in 1.5 mi SSE 11.5 mph 24.2 mph N/A Rain Rain
5:15 PM 73.4 °F - 71.6 °F 94% 29.91 in 1.5 mi South 4.6 mph - N/A   Overcast
5:35 PM 73.4 °F - 73.4 °F 100% 29.91 in 1.2 mi SE 4.6 mph - N/A   Mostly Cloudy
5:55 PM 75.2 °F - 73.4 °F 94% 29.90 in 7.0 mi SE 9.2 mph - N/A   Clear
6:15 PM 73.4 °F - 71.6 °F 94% 29.91 in 3.0 mi SSE 8.1 mph - N/A   Clear
6:35 PM 73.4 °F - 71.6 °F 94% 29.90 in 3.0 mi SE 9.2 mph - N/A   Scattered Clouds
6:55 PM 73.4 °F - 69.8 °F 88% 29.90 in 2.5 mi SSE 6.9 mph - N/A   Mostly Cloudy
7:15 PM 73.4 °F - 71.6 °F 94% 29.90 in 2.0 mi SSE 5.8 mph - N/A   Drizzle
7:35 PM 73.4 °F - 69.8 °F 88% 29.90 in 4.0 mi SE 6.9 mph - N/A Rain Light Rain
7:55 PM 71.6 °F - 69.8 °F 94% 29.89 in 4.0 mi SE 6.9 mph - N/A Rain Rain
8:15 PM 71.6 °F - 69.8 °F 94% 29.89 in - SE 6.9 mph - N/A   Unknown
8:35 PM 71.6 °F - 69.8 °F 94% 29.90 in - SSE 6.9 mph - N/A   Unknown
8:55 PM 71.6 °F - 69.8 °F 94% 29.90 in - SE 8.1 mph - N/A   Unknown
9:15 PM 71.6 °F - 69.8 °F 94% 29.90 in - SSE 6.9 mph - N/A   Unknown
9:35 PM 71.6 °F - 69.8 °F 94% 29.91 in - South 5.8 mph - N/A   Unknown
9:55 PM 71.6 °F - 69.8 °F 94% 29.91 in - SSE 6.9 mph - N/A   Unknown
10:15 PM 71.6 °F - 69.8 °F 94% 29.91 in - SSE 5.8 mph - N/A   Unknown